Temperature
15 15 15 15 15 15 15 16 17 18 18 19 18 17 15 13 12 11 10 9 8 8 8 7 7 6 6 5 5 5 4 4 3 3 2 2 1 1 1 0 0 -0 -1 -1
13 13 14 15 15 15 15 16 17 17 18 19 17 15 14 13 12 11 10 9 8 8 7 7 6 6 5 5 4 4 4 3 2 2 2 1 1 0 -0 -0 -1 -1 -1 -2
14 13 13 14 15 16 16 17 17 17 18 16 14 14 14 13 12 11 10 10 9 8 7 6 6 5 4 4 4 3 3 2 2 1 1 0 0 -0 -1 -1 -1 -2 -3 -3
13 13 13 17 15 16 16 17 17 17 16 15 15 12 11 11 11 11 11 10 10 8 6 6 5 4 4 4 3 3 2 1 1 1 0 -0 -1 -1 -1 -2 -2 -3 -4 -4
12 14 15 15 12 13 14 15 15 15 14 13 11 11 10 9 10 10 11 10 9 7 6 5 4 4 3 3 2 2 1 1 0 -0 -1 -1 -1 -1 -2 -3 -4 -4 -5 -5
12 13 14 16 13 12 14 15 12 13 12 11 12 14 12 9 10 10 10 9 8 6 5 4 3 3 3 2 2 1 1 0 -0 -1 -1 -1 -2 -2 -3 -4 -4 -5 -6 -6
13 14 16 14 11 12 15 16 11 11 11 11 13 12 9 9 9 9 8 8 6 5 4 3 3 2 2 2 1 1 0 -0 -1 -1 -2 -2 -3 -3 -4 -5 -5 -6 -6 -7
13 13 14 11 11 13 13 10 10 10 10 10 9 9 8 8 8 8 7 6 5 4 3 3 2 2 1 1 0 -0 -1 -1 -1 -2 -2 -3 -3 -4 -5 -6 -6 -6 -7 -8
14 13 10 9 11 10 10 10 9 9 10 10 9 8 8 8 7 7 6 5 4 3 3 2 2 1 0 -0 -0 -1 -1 -1 -2 -2 -3 -3 -4 -5 -5 -6 -7 -7 -8 -8
10 10 8 7 7 8 9 10 10 10 9 9 8 8 7 7 7 6 5 4 4 3 2 1 1 -0 -1 -1 -1 -1 -1 -2 -3 -3 -4 -4 -5 -5 -6 -7 -8 -8 -8 -9
10 9 8 7 7 8 10 10 9 9 8 8 8 7 7 6 6 5 4 3 2 2 1 0 -1 -1 -1 -1 -1 -2 -2 -3 -3 -4 -4 -5 -5 -6 -7 -8 -9 -9 -9 -9
12 10 10 9 7 9 9 8 8 8 7 7 7 7 6 5 5 4 3 2 1 0 -0 -1 -1 -1 -1 -2 -2 -3 -3 -4 -4 -5 -5 -6 -6 -7 -8 -9 -9 -9 -9 -10
9 8 8 7 7 8 8 8 7 7 7 7 6 6 5 4 3 3 2 1 0 -0 -1 -1 -1 -2 -2 -2 -3 -3 -4 -4 -5 -5 -6 -7 -7 -8 -8 -9 -9 -10 -10 -10
8 8 5 6 7 7 7 7 7 6 6 6 6 5 4 3 2 1 0 -0 -1 -1 -1 -1 -2 -2 -3 -3 -3 -4 -4 -5 -5 -6 -7 -7 -8 -9 -9 -9 -10 -10 -10 -10
6 7 7 7 7 6 7 6 6 6 6 5 5 4 3 1 -0 -1 -1 -1 -1 -1 -2 -2 -2 -3 -3 -3 -4 -4 -5 -5 -6 -7 -8 -8 -9 -10 -10 -10 -10 -10 -10 -10
6 7 7 6 6 6 6 6 6 5 5 4 3 3 2 0 -1 -1 -1 -1 -2 -2 -2 -2 -3 -3 -3 -4 -4 -5 -5 -6 -6 -7 -8 -9 -10 -10 -10 -10 -10 -10 -11 -11
5 4 5 6 6 6 5 5 5 4 3 3 2 1 1 -0 -1 -1 -2 -2 -2 -2 -3 -3 -3 -3 -4 -4 -5 -5 -6 -6 -7 -8 -9 -10 -10 -11 -11 -11 -11 -11 -11 -11
7 7 7 6 6 5 4 4 3 3 2 2 1 1 0 -1 -1 -2 -2 -2 -3 -3 -3 -3 -4 -4 -4 -5 -6 -6 -7 -7 -8 -10 -10 -11 -11 -11 -11 -11 -11 -12 -12 -12
6 6 6 5 5 4 4 3 3 2 2 2 1 0 -1 -1 -2 -2 -2 -3 -3 -3 -4 -4 -4 -5 -5 -6 -6 -7 -7 -9 -10 -10 -10 -11 -11 -11 -11 -12 -12 -12 -13 -13
5 5 5 4 4 3 3 3 2 2 2 1 0 -1 -1 -2 -2 -2 -3 -3 -4 -4 -4 -5 -5 -5 -6 -6 -7 -8 -9 -10 -10 -10 -11 -11 -11 -11 -12 -12 -12 -13 -13 -13
5 4 4 3 3 3 2 2 1 1 1 -0 -1 -1 -2 -2 -3 -3 -3 -4 -4 -5 -5 -5 -6 -6 -7 -7 -8 -9 -10 -10 -10 -11 -11 -11 -11 -12 -12 -12 -13 -13 -14 -14
4 3 3 3 2 2 1 1 0 0 -0 -1 -1 -2 -2 -3 -3 -4 -4 -5 -5 -5 -6 -6 -7 -7 -8 -9 -9 -10 -10 -10 -10 -11 -11 -11 -12 -12 -12 -12 -13 -13 -14 -14
3 3 3 2 1 1 0 -0 -0 -1 -1 -2 -2 -3 -3 -4 -4 -5 -5 -6 -6 -6 -7 -7 -7 -8 -9 -9 -9 -10 -10 -10 -10 -11 -11 -11 -11 -12 -13 -13 -13 -14 -14 -14
3 2 2 1 1 -0 -0 -1 -1 -1 -2 -3 -3 -4 -4 -5 -5 -6 -6 -7 -7 -7 -7 -8 -8 -9 -9 -9 -10 -10 -10 -10 -11 -11 -11 -11 -12 -13 -13 -13 -13 -13 -13 -13
2 1 1 0 -0 -1 -1 -1 -2 -3 -3 -4 -4 -5 -5 -6 -6 -7 -7 -7 -7 -8 -8 -8 -9 -9 -9 -10 -10 -10 -11 -11 -11 -12 -12 -12 -12 -12 -12 -13 -13 -13 -13 -12
1 0 -0 -1 -1 -2 -2 -3 -3 -4 -4 -5 -6 -6 -7 -7 -7 -7 -8 -8 -8 -8 -8 -9 -9 -9 -10 -10 -10 -11 -11 -11 -11 -11 -11 -12 -12 -12 -12 -12 -12 -12 -12 -12
-1 -1 -2 -2 -2 -3 -3 -4 -5 -5 -6 -7 -7 -7 -7 -8 -8 -8 -8 -8 -9 -9 -9 -9 -10 -10 -10 -10 -11 -11 -11 -11 -11 -12 -12 -12 -12 -12 -12 -12 -12 -12 -12 -12
Wind_Speed
6 8 17 18 21 22 25 22 16 15 17 15 9 8 9 11 13 14 14 15 16 16 14 13 11 10 8 7 5 4 2 1 2 3 5 6 7 8 9 9 10 10 12 12
5 5 13 15 22 25 26 26 24 19 17 9 6 8 9 11 13 13 14 15 16 16 15 14 12 10 8 6 5 3 2 1 2 4 5 6 8 9 9 10 10 11 13 14
4 6 7 11 20 25 23 25 24 26 23 8 9 12 11 10 10 10 11 13 15 15 15 13 11 10 8 6 5 3 1 1 3 5 6 8 9 9 10 11 12 13 14 15
5 7 8 6 3 18 23 24 22 16 7 14 12 11 8 6 7 7 7 9 12 13 13 12 10 9 7 6 4 2 0 2 3 5 7 9 9 10 11 11 12 14 15 16
4 7 7 4 4 8 13 16 16 16 10 12 15 11 6 4 4 3 4 6 9 12 13 12 11 9 7 5 3 1 1 3 4 6 8 9 11 12 12 13 14 14 15 16
5 5 6 2 5 7 7 7 9 13 15 17 16 11 7 5 5 6 6 8 10 12 13 12 10 8 6 4 2 1 3 4 6 7 9 10 11 13 13 13 14 15 15 15
9 6 6 2 6 9 8 2 12 14 15 14 8 5 9 8 7 8 9 10 12 12 11 10 9 7 5 3 2 2 4 6 7 8 9 10 12 12 13 14 15 15 16 14
8 8 7 6 10 8 2 8 13 14 12 11 11 10 9 8 8 9 10 11 11 10 9 8 7 5 3 2 2 3 5 7 8 9 9 9 11 12 13 14 15 15 15 14
8 5 2 2 3 2 7 12 11 9 11 12 10 8 7 6 7 8 9 10 9 9 9 7 6 4 3 2 2 4 6 8 9 10 10 10 11 13 12 12 12 13 13 14
3 2 1 2 4 7 10 11 11 12 11 9 8 8 6 6 6 7 8 8 8 8 8 6 5 3 2 2 3 5 7 9 9 10 11 11 10 10 11 11 12 13 14 15
3 3 5 4 6 9 11 14 13 11 8 7 8 6 5 4 6 7 7 7 7 7 7 6 6 4 2 2 3 6 8 9 9 9 10 11 11 10 12 11 12 15 15 15
6 11 8 9 10 11 13 11 11 10 7 6 5 4 4 3 4 6 8 8 7 7 7 6 5 3 2 2 4 7 8 9 8 9 9 10 11 12 12 14 18 20 21 20
4 6 6 12 11 10 10 10 9 9 7 6 5 4 4 3 4 6 8 9 9 8 7 5 3 2 3 4 5 7 8 9 8 9 10 10 11 12 14 14 15 18 19 20
7 8 8 9 8 10 11 11 10 9 8 6 5 4 4 4 5 7 8 8 8 7 5 4 3 3 4 4 6 7 8 9 9 9 10 10 11 12 13 14 15 13 15 19
5 3 9 12 12 11 10 8 8 7 6 5 4 4 5 5 6 6 7 7 6 5 4 3 4 4 4 5 6 8 8 7 8 9 10 10 11 12 12 14 14 15 15 16
9 11 13 14 12 10 7 7 7 6 5 5 5 5 5 4 4 6 6 6 6 5 5 5 5 4 4 5 7 7 8 10 11 10 10 10 11 12 12 13 14 14 15 15
14 11 10 10 9 8 6 6 6 6 6 6 6 6 5 5 5 6 6 6 5 5 4 5 4 4 5 6 7 7 8 9 11 11 10 11 11 12 13 13 14 14 14 16
13 14 14 14 12 10 7 6 5 5 5 5 6 6 7 7 8 8 7 6 5 5 5 4 4 5 6 6 7 8 8 9 9 10 11 11 12 13 13 13 14 15 14 16
12 13 12 11 10 9 7 6 5 4 4 5 6 6 7 7 6 6 7 6 5 4 2 2 4 6 7 8 9 8 8 9 10 11 11 14 14 12 12 13 13 14 14 14
12 13 12 10 8 6 6 5 4 3 3 4 5 5 5 5 5 6 6 4 3 2 3 4 5 6 7 8 10 8 9 11 12 12 12 12 12 12 12 13 13 14 14 14
13 12 11 9 7 5 4 4 3 2 2 3 4 5 4 4 5 4 3 3 1 1 3 6 6 6 7 9 12 9 10 11 11 12 12 12 12 12 12 13 13 13 13 13
10 9 9 7 7 5 3 2 2 2 3 3 3 4 4 5 4 3 2 2 2 4 5 5 6 8 11 14 9 9 10 11 11 11 11 11 11 12 12 13 13 13 13 13
8 7 7 6 6 5 4 3 3 3 4 4 4 4 4 3 3 2 1 1 2 6 7 6 9 14 16 11 8 9 10 10 10 10 10 11 11 11 12 13 13 13 13 13
8 7 7 6 6 6 5 3 4 4 4 4 4 4 4 3 2 1 1 3 6 8 6 8 13 15 14 8 8 8 9 10 10 10 11 11 11 11 12 12 12 12 12 14
7 7 6 7 6 4 5 6 6 6 6 6 6 6 4 3 2 1 3 4 7 8 6 9 12 13 9 7 8 9 9 10 11 12 12 11 12 12 12 12 12 12 12 12
6 6 5 4 4 4 5 5 5 5 5 5 5 4 3 2 2 2 3 4 6 8 7 6 8 9 7 8 9 10 11 12 12 11 12 12 13 13 12 12 14 12 11 11
8 6 6 5 4 4 5 5 6 5 4 4 4 2 2 2 2 3 4 4 5 6 6 6 7 8 8 9 10 11 11 11 11 12 12 11 11 11 11 13 11 11 11 11
Wind_Direction
190 169 182 196 198 202 212 222 230 231 234 239 218 186 171 171 172 175 178 182 183 182 178 173 168 163 158 150 146 143 137 93 26 5 358 348 340 331 322 316 315 315 316 317
165 174 195 205 204 205 214 221 232 243 245 243 178 164 165 169 173 180 186 189 188 186 181 176 170 163 159 155 152 157 154 43 4 353 346 335 327 319 313 311 314 316 317 318
172 149 168 224 216 211 217 224 228 237 244 183 174 179 176 170 171 179 186 188 189 187 182 174 167 162 161 156 154 158 142 2 350 342 330 322 315 311 314 317 317 316 316 316
136 153 214 221 213 215 222 228 227 236 244 185 176 146 132 136 150 158 176 185 184 178 171 162 154 154 151 151 156 159 212 341 338 326 318 314 313 316 320 319 315 313 313 312
177 208 248 241 183 186 206 229 224 222 183 148 134 126 117 94 98 115 152 168 167 162 156 151 150 152 155 159 164 191 312 325 323 317 313 314 318 322 320 316 312 311 310 311
199 213 239 222 149 166 170 232 190 184 163 152 157 170 155 121 102 99 111 129 138 142 143 144 147 155 164 168 194 272 313 314 311 309 311 315 317 315 314 311 308 309 309 311
219 235 265 134 149 163 191 249 148 157 150 151 157 123 114 117 107 111 119 129 136 140 141 143 148 157 167 182 245 303 305 303 305 310 314 312 310 311 309 308 307 310 312 314
202 222 241 141 156 186 126 123 135 135 132 120 109 107 113 117 122 128 130 137 141 140 137 140 149 158 174 219 281 299 301 304 309 312 311 306 306 307 309 311 312 316 317 317
198 211 60 153 182 121 143 137 131 124 121 122 122 126 126 130 137 144 146 147 148 144 141 144 151 164 208 245 293 302 306 308 308 307 305 303 303 307 311 315 316 317 316 316
173 189 132 129 122 119 126 119 117 120 122 125 128 136 139 142 153 159 160 158 154 152 153 158 165 184 229 269 294 302 304 304 304 304 305 307 306 307 313 316 315 314 315 316
163 148 131 144 142 128 113 112 111 106 105 117 128 136 151 162 173 173 168 165 163 166 169 170 175 196 224 273 295 297 298 298 301 303 305 307 308 309 309 305 304 308 310 312
193 180 169 165 151 138 128 125 126 120 107 89 99 123 136 157 170 172 170 165 165 168 170 168 176 198 244 278 282 287 293 301 305 306 307 309 312 310 301 297 301 302 302 303
124 138 126 133 136 132 124 118 111 108 112 111 98 102 122 138 155 163 163 165 168 170 167 163 172 223 256 265 270 277 287 297 302 304 308 311 311 311 312 311 307 303 302 304
132 124 130 141 136 127 121 115 105 98 99 108 114 120 134 142 154 162 165 165 161 158 156 163 203 244 258 262 269 279 288 292 298 303 306 307 308 308 308 311 314 313 311 309
131 119 135 126 118 113 111 112 111 116 125 133 144 162 173 176 174 165 154 149 148 155 172 199 234 255 262 267 277 287 293 299 306 307 305 304 305 305 305 307 308 311 313 315
112 107 120 124 124 123 121 128 137 151 163 169 177 187 190 185 166 151 152 155 167 193 205 219 246 267 277 280 287 291 294 300 307 307 304 304 304 304 306 307 309 311 314 317
133 136 134 133 138 144 148 153 155 161 173 183 188 185 177 165 161 168 173 182 199 211 219 238 261 279 283 288 295 298 302 304 306 302 301 301 302 304 305 307 309 310 310 313
153 151 153 150 150 148 150 158 166 172 180 183 179 179 183 187 192 189 182 183 198 220 241 248 266 283 290 299 304 302 302 303 304 302 301 301 303 304 306 308 309 309 311 313
131 131 131 130 134 137 143 154 161 162 165 170 181 193 200 203 197 178 170 184 207 239 243 249 285 294 303 309 311 302 299 300 300 300 301 302 304 304 306 307 309 310 310 312
122 122 122 122 123 128 134 135 137 143 157 176 186 190 192 188 176 169 177 200 233 275 304 305 305 307 311 311 308 297 296 299 301 302 302 303 304 306 308 308 308 309 310 311
130 131 132 133 128 120 117 122 135 151 162 178 188 190 182 167 166 168 183 226 238 281 295 302 308 312 312 307 302 300 302 302 302 301 302 303 305 306 307 308 308 307 308 310
137 138 136 131 125 114 99 105 136 156 161 168 168 158 154 156 163 177 215 267 323 321 311 304 308 310 312 310 305 305 302 301 301 301 301 303 305 305 305 305 304 305 308 310
131 128 129 129 128 122 112 115 140 153 155 155 156 157 158 152 158 177 235 23 326 317 311 305 311 312 315 314 307 303 301 300 299 300 301 302 301 299 300 302 304 306 308 309
124 123 121 121 127 134 133 119 113 112 113 112 114 121 124 127 126 97 12 334 327 317 308 307 313 316 319 314 305 301 299 299 300 301 300 298 297 299 301 302 302 304 305 307
119 120 127 138 143 139 128 122 112 108 105 100 94 87 77 68 69 13 331 320 321 318 309 310 314 319 317 304 301 299 298 296 296 298 300 302 302 300 299 299 302 304 304 304
126 128 125 120 120 126 132 132 125 125 123 117 107 90 73 50 18 342 325 318 315 316 315 309 310 312 307 302 300 299 298 299 301 302 300 300 298 298 298 299 301 301 300 300
118 119 116 106 95 107 116 118 118 117 118 122 117 92 44 13 353 339 328 322 319 316 312 309 308 305 303 301 300 300 301 302 302 301 300 298 297 297 297 298 297 296 296 297
Height
1422 1426 1428 1432 1438 1441 1442 1439 1441 1437 1438 1435 1439 1443 1446 1449 1453 1458 1461 1464 1466 1469 1472 1475 1477 1480 1481 1482 1483 1482 1481 1480 1478 1475 1472 1470 1467 1464 1460 1455 1451 1445 1440 1434
1427 1430 1428 1429 1429 1433 1434 1434 1433 1433 1433 1433 1439 1443 1446 1448 1451 1454 1457 1460 1463 1466 1469 1471 1474 1477 1479 1480 1480 1479 1478 1476 1474 1471 1469 1466 1463 1459 1455 1450 1445 1440 1434 1429
1426 1431 1432 1432 1423 1424 1426 1425 1427 1429 1426 1435 1439 1441 1444 1446 1449 1452 1454 1457 1459 1462 1465 1468 1472 1475 1477 1477 1477 1476 1474 1472 1470 1468 1466 1463 1459 1454 1450 1445 1440 1434 1429 1423
1428 1431 1436 1411 1414 1413 1417 1417 1420 1422 1425 1429 1433 1440 1444 1446 1449 1451 1453 1456 1458 1460 1463 1466 1470 1472 1474 1474 1474 1473 1471 1469 1467 1465 1462 1458 1454 1450 1445 1440 1434 1428 1422 1416
1430 1424 1417 1412 1415 1416 1417 1416 1418 1422 1427 1432 1437 1441 1446 1446 1448 1451 1453 1454 1456 1458 1461 1464 1468 1470 1471 1471 1471 1469 1468 1466 1464 1461 1458 1454 1450 1445 1440 1434 1428 1422 1416 1409
1427 1424 1420 1406 1411 1414 1416 1414 1417 1420 1425 1430 1435 1437 1444 1447 1448 1450 1452 1453 1454 1456 1459 1463 1466 1468 1469 1468 1468 1467 1465 1463 1460 1457 1454 1450 1445 1440 1434 1428 1422 1416 1409 1403
1420 1419 1406 1408 1412 1414 1416 1409 1415 1420 1425 1430 1433 1436 1443 1445 1448 1450 1451 1452 1454 1456 1459 1462 1464 1465 1466 1466 1465 1464 1462 1460 1457 1454 1450 1446 1441 1435 1429 1422 1416 1409 1403 1396
1417 1417 1412 1411 1412 1411 1411 1415 1417 1422 1427 1431 1434 1439 1442 1445 1447 1449 1450 1452 1453 1456 1458 1460 1462 1463 1463 1463 1462 1461 1459 1456 1454 1450 1446 1441 1436 1429 1423 1417 1410 1403 1396 1390
1404 1408 1410 1410 1410 1411 1412 1415 1419 1423 1428 1432 1436 1439 1443 1445 1447 1449 1450 1451 1453 1455 1457 1459 1460 1461 1461 1460 1459 1457 1455 1453 1450 1446 1441 1436 1430 1424 1418 1411 1405 1398 1392 1386
1407 1408 1410 1410 1410 1412 1414 1417 1421 1425 1429 1433 1436 1440 1442 1445 1446 1448 1449 1450 1452 1454 1456 1457 1458 1458 1458 1457 1456 1454 1452 1449 1445 1441 1436 1430 1424 1418 1412 1406 1400 1395 1389 1383
1405 1409 1410 1411 1411 1413 1416 1419 1423 1428 1431 1434 1437 1440 1442 1443 1445 1446 1447 1449 1450 1452 1453 1454 1454 1454 1454 1453 1452 1450 1448 1444 1440 1435 1430 1424 1418 1413 1407 1401 1397 1392 1386 1380
1396 1401 1404 1409 1411 1414 1417 1421 1425 1428 1432 1434 1437 1439 1440 1441 1442 1443 1444 1446 1448 1449 1450 1451 1451 1451 1451 1450 1448 1446 1443 1439 1435 1430 1424 1418 1412 1406 1401 1397 1392 1387 1382 1377
1396 1399 1402 1406 1411 1415 1419 1422 1426 1429 1431 1434 1435 1437 1438 1438 1439 1440 1441 1443 1445 1446 1447 1448 1448 1448 1447 1446 1444 1441 1438 1434 1429 1424 1419 1413 1407 1401 1395 1390 1387 1382 1377 1372
1395 1398 1402 1406 1410 1415 1419 1422 1425 1428 1431 1432 1434 1434 1435 1436 1436 1438 1439 1441 1442 1443 1444 1445 1445 1444 1443 1442 1439 1436 1432 1428 1423 1418 1413 1408 1403 1397 1391 1385 1380 1375 1372 1367
1395 1398 1400 1404 1410 1415 1419 1422 1425 1428 1430 1431 1432 1432 1432 1433 1434 1435 1437 1438 1440 1441 1441 1442 1441 1441 1439 1437 1434 1431 1427 1422 1418 1413 1408 1403 1398 1393 1388 1382 1377 1371 1365 1361
1395 1398 1401 1405 1410 1415 1418 1422 1425 1426 1428 1429 1429 1430 1430 1431 1432 1433 1434 1436 1437 1438 1438 1438 1438 1437 1435 1432 1428 1425 1421 1417 1413 1408 1403 1398 1393 1389 1384 1378 1373 1368 1362 1356
1392 1397 1402 1406 1410 1415 1418 1421 1423 1425 1426 1426 1427 1427 1428 1428 1430 1431 1432 1433 1434 1435 1435 1435 1434 1432 1430 1427 1423 1420 1416 1411 1407 1402 1398 1393 1389 1384 1380 1375 1369 1364 1358 1353
1393 1397 1402 1406 1411 1414 1418 1420 1422 1423 1424 1424 1425 1425 1426 1426 1427 1428 1430 1431 1431 1432 1432 1431 1430 1427 1425 1422 1418 1414 1410 1406 1401 1397 1393 1389 1385 1380 1376 1370 1365 1359 1353 1348
1395 1400 1404 1408 1412 1415 1417 1419 1420 1421 1422 1422 1423 1423 1424 1425 1426 1426 1427 1428 1429 1429 1428 1427 1425 1423 1420 1417 1413 1409 1404 1400 1396 1392 1388 1384 1380 1375 1371 1366 1360 1355 1349 1344
1397 1402 1405 1409 1412 1414 1416 1417 1418 1419 1420 1421 1421 1421 1422 1423 1423 1424 1425 1426 1426 1425 1424 1423 1420 1418 1415 1411 1407 1403 1399 1395 1392 1387 1383 1379 1375 1370 1366 1361 1356 1350 1345 1340
1398 1403 1406 1409 1411 1413 1415 1416 1418 1418 1419 1419 1419 1419 1420 1421 1421 1422 1423 1424 1423 1422 1420 1418 1416 1413 1409 1405 1401 1398 1394 1390 1387 1382 1378 1374 1369 1365 1361 1356 1351 1346 1341 1336
1400 1403 1406 1408 1411 1412 1414 1415 1416 1416 1416 1416 1416 1417 1417 1418 1419 1420 1420 1420 1419 1417 1416 1413 1411 1407 1403 1400 1396 1393 1389 1385 1381 1377 1373 1369 1364 1360 1355 1351 1346 1341 1337 1332
1400 1403 1406 1408 1410 1411 1413 1413 1413 1413 1413 1414 1414 1415 1415 1416 1417 1417 1417 1416 1415 1413 1411 1408 1405 1401 1398 1394 1391 1387 1384 1380 1376 1372 1368 1363 1359 1355 1350 1346 1341 1337 1332 1327
1400 1402 1404 1406 1408 1409 1410 1410 1410 1411 1411 1411 1412 1413 1413 1414 1414 1414 1413 1412 1410 1408 1405 1402 1399 1396 1392 1389 1386 1382 1379 1375 1371 1366 1362 1357 1354 1350 1345 1341 1336 1332 1328 1323
1398 1401 1402 1404 1405 1406 1407 1407 1408 1408 1409 1410 1410 1411 1411 1411 1412 1411 1409 1407 1405 1403 1400 1397 1394 1391 1388 1384 1381 1377 1373 1369 1365 1360 1356 1352 1348 1344 1340 1335 1331 1327 1323 1319
1396 1398 1400 1401 1403 1404 1404 1405 1405 1406 1407 1408 1409 1409 1409 1409 1408 1407 1405 1403 1400 1398 1395 1392 1389 1386 1383 1379 1376 1372 1368 1363 1359 1354 1350 1346 1342 1338 1334 1330 1326 1323 1319 1316
1394 1395 1397 1399 1400 1401 1402 1403 1404 1405 1406 1407 1407 1407 1407 1406 1405 1403 1401 1399 1396 1394 1391 1388 1385 1381 1378 1374 1370 1366 1362 1357 1352 1348 1344 1340 1336 1332 1329 1325 1322 1319 1316 1312